Sherbro International Airport

Jump to: basic info | weather | comments

Related pages: nearby airports | nearby navaids | notams | map

Basic information (top)

Codes: BTE GFBN
Location: lon 7.532420, lat -12.518900, elev 14 ft / 4 m msl
Status: medium_airport
Scheduled airline service: yes
Links: Wikipedia Mobile

Weather (top)

Current conditions for Lungi International Airport 77nm (142km) NNW (rec'd 2015/03/01 00:00Z):

GFLL 010000Z 30008KT 9999 SCT012 26/21 Q1013

Airport forecast for Lungi International Airport 77nm (142km) NNW (rec'd 2015/02/28 00:54Z):

TAF TAF GFLL 282200Z 0100/0206 27010KT 9999 SCT014 PROB30 
      TEMPO 0102/0107 09006KT 3000 BR BKN012 
      BECMG 0108/0110 29008KT 8888 SCT013

Latest comments (top)

No comments yet for Sherbro International Airport

More... (top)

See also NOTAMs and nearby airports and navaids, or visit the Sherbro International Airport page at the main OurAirports website..